TimeEDT,TemperatureF,Dew PointF,Humidity,Sea Level PressureIn,VisibilityMPH,Wind Direction,Wind SpeedMPH,Gust SpeedMPH,PrecipitationIn,Events,Conditions,WindDirDegrees,DateUTC
12:55 AM,39.0,37.4,94,30.15,10.0,WSW,3.5,-,N/A,,Partly Cloudy,240,2011-10-24 04:55:00
1:55 AM,40.3,38.3,93,30.15,10.0,West,3.5,-,N/A,,Partly Cloudy,270,2011-10-24 05:55:00
2:55 AM,39.9,38.7,95,30.14,10.0,Calm,Calm,-,N/A,,Clear,0,2011-10-24 06:55:00
3:55 AM,37.6,36.0,94,30.14,10.0,Calm,Calm,-,N/A,,Scattered Clouds,0,2011-10-24 07:55:00
4:55 AM,37.0,36.0,96,30.14,10.0,Calm,Calm,-,N/A,,Scattered Clouds,0,2011-10-24 08:55:00
5:55 AM,37.2,36.5,97,30.14,8.0,Calm,Calm,-,N/A,Fog,Patches of Fog,0,2011-10-24 09:55:00
6:55 AM,37.2,36.5,97,30.14,7.0,Calm,Calm,-,N/A,Fog,Patches of Fog,0,2011-10-24 10:55:00
7:55 AM,37.6,36.5,96,30.14,7.0,Calm,Calm,-,N/A,,Mostly Cloudy,0,2011-10-24 11:55:00
8:55 AM,41.5,40.5,96,30.14,10.0,Calm,Calm,-,N/A,,Mostly Cloudy,0,2011-10-24 12:55:00
9:55 AM,46.6,40.6,80,30.14,10.0,Calm,Calm,-,N/A,,Mostly Cloudy,0,2011-10-24 13:55:00
10:55 AM,50.5,41.9,72,30.12,10.0,Calm,Calm,-,N/A,,Mostly Cloudy,0,2011-10-24 14:55:00
11:55 AM,56.7,43.9,62,30.09,10.0,Variable,3.5,-,N/A,,Mostly Cloudy,0,2011-10-24 15:55:00
12:55 PM,57.6,43.9,60,30.07,10.0,Variable,1.2,-,N/A,,Mostly Cloudy,0,2011-10-24 16:55:00
1:55 PM,58.3,43.5,58,30.04,10.0,WSW,3.5,-,N/A,,Overcast,250,2011-10-24 17:55:00
2:55 PM,58.1,42.6,56,30.03,10.0,SW,2.3,-,N/A,,Overcast,220,2011-10-24 18:55:00
3:55 PM,57.2,46.8,68,30.01,10.0,SE,8.1,-,N/A,,Overcast,130,2011-10-24 19:55:00
4:55 PM,55.8,46.8,72,29.99,10.0,SSE,9.2,-,N/A,,Overcast,150,2011-10-24 20:55:00
5:55 PM,54.5,45.7,72,29.99,10.0,SSE,10.4,-,N/A,,Overcast,160,2011-10-24 21:55:00
6:55 PM,54.7,46.8,75,29.97,10.0,SSE,9.2,-,N/A,,Mostly Cloudy,150,2011-10-24 22:55:00
7:55 PM,54.7,47.3,76,29.96,10.0,SSE,6.9,-,N/A,,Overcast,160,2011-10-24 23:55:00
8:55 PM,54.1,45.5,73,29.95,10.0,South,6.9,-,N/A,,Overcast,180,2011-10-25 00:55:00
9:55 PM,54.3,43.5,67,29.95,10.0,South,6.9,-,N/A,,Overcast,190,2011-10-25 01:55:00
10:11 PM,53.6,44.6,72,29.94,8.0,South,5.8,-,N/A,Rain,Light Rain Showers,190,2011-10-25 02:11:00
10:55 PM,52.7,44.4,73,29.93,8.0,South,5.8,-,0.00,,Overcast,170,2011-10-25 02:55:00
11:55 PM,52.5,44.6,74,29.91,10.0,SSW,4.6,-,N/A,,Overcast,210,2011-10-25 03:55:00